Location: Famechon
(49.7599°N, 2.0615°E)
Time: 22:28:18
(UTC+00:00)

Cosmos 1741 Rocket - Pass Details

Date: 28 March 2025
Orbit: 758 x 778 km, 74.0° (Epoch: 28 April)

Event Time Altitude Azimuth Distance (km) Brightness Sun altitude
Rises 02:10:04 0° 329° (NNW) 3,236 7.5 -29.9°
Reaches altitude 10° 02:12:39 10° 319° (NW) 2,309 6.6 -29.6°
Enters shadow 02:13:11 13° 316° (NW) 2,127 6.3 -29.6°
